STARLINK-5702, 55622

Orbit data source: Space-Track

STARLINK-5702, 55622 is a payload satellite owned by SpaceX/Seattle (US) in LEO that was launched on Sun, 12 Feb 2023 UTC via an FALCON 9 launch vehicle from the Air Force Eastern Test Range (AFETR). Payload-class satellites include a variety of spacecraft equipped with specific instruments for various scientific and technological missions. These include communications satellites like Starlink; space stations such as the ISS; scientific satellites like the Hubble; Earth observation satellites from companies like Planet Labs, Umbra, and HawkEye 360; GPS; miniature CubeSats for education and research; and military/defense satellites.

Loading next visibility...
Identifier
55622, 2023-020BF
Orbit
LEO
Country
Flag of USUS
Related business
Manufacturer
SpaceX/Seattle
Mission
Operational Commercial Communications
Bus & Motor
STARLINK, Unknown motor
Mass
305 kg wet, ~290 kg dry
Launch date (UTC)
2023-02-12 (3 years ago)
Launch vehicle
FALCON 9
Launch site
Air Force Eastern Test Range (AFETR)
Object type
Payload
Rocket body
Debris
Shape & HBR
Box + 1 Pan, 10.1 m
Radar Cross Section
13.562 m², Large (>1 m²)

Expand to show TLE details & history
Last TLE update: 10 hours ago

TLE from 10 hours ago
0 STARLINK-5702
1 55622U 23020BF  26062.31515406  .00000231  00000-0  32179-4 0  9990
2 55622  43.0057  26.0260 0001247 265.1421  94.9279 15.02530947168115
Epoch: 2026-03-03T07:33Z
TLE epoch observation values (Epoch: 2026-03-03T07:33:49.310Z)
Latitude
-0.00003°
Longitude
111.47453°
Altitude
558.948 km
Speed
7.584 km/s
True Right ascension
01h 44m 06s
True Declination
0° 00' 00"
Sunlit
Object was in daylight at epoch
Visualization orbit readout
Latitude
Unknown
Longitude
Unknown
Altitude
Unknown
Speed
Unknown
Apparent Right ascension
Unknown
Apparent Declination
Unknown
Sunlit
N/A
Visualization observer readout
Local Sidereal Time
20:54:15
Azimuth
Unknown
Elevation
Unknown
Doppler factor
Unknown
Orbital elements
Apogee altitude
561.883 km
Perigee altitude
560.153 km
Semi-major axis
6,939.155 km
Eccentricity
0.00012
Inclination
43.0057°
RAAN
26.026°
Arg. of periapsis
265.1421°
True anomaly
94.94214°
Mean anomaly
94.9279°
Eccentric anomaly
94.93502°
Mean motion
3.75477 °/min
Orbital period
95.88 mins
BSTAR
0.000032179
Loading maneuver chart data...
Computing Atmospheric mass density...

Documentation

Showing up to 5 results
|